Weather History for KONA - August, 2013

Change the Weather History Date:

Tuesday, August 27, 2013

  Actual Average Record
Temperature  
Mean Temperature 86 °F -  
Max Temperature 95 °F 83 °F 95 °F (2013)
Min Temperature 77 °F 63 °F 51 °F (1971)
Cooling Degree Days 21    
Growing Degree Days 36 (Base 50)    
Moisture  
Dew Point 70 °F    
Average Humidity 62    
Maximum Humidity 83    
Minimum Humidity 44    
Precipitation  
Precipitation 0.00 in - - ()
Sea Level Pressure  
Sea Level Pressure 29.85 in    
Wind  
Wind Speed 4 mph (WSW)    
Max Wind Speed 10 mph    
Max Gust Speed 16 mph    
Visibility 10 miles    
Events      
Averages and records for this station are not official NWS values.
T = Trace of Precipitation, MM = Missing Value Source: NWS Daily Summary

Daily Weather History Graph

Daily Weather History Graph

Search for Another Location

Airport or City:

Trip Planner

Search our weather history database for the weather conditions in past years. The results will help you decide how hot, cold, wet, or windy it might be!

Date:

Astronomy

Aug. 27, 2013 Rise Set
Actual Time 6:24 AM CDT 7:51 PM CDT
Civil Twilight 5:54 AM CDT 8:21 PM CDT
Nautical Twilight 5:17 AM CDT 8:57 PM CDT
Astronomical Twilight 4:39 AM CDT 9:36 PM CDT
Moon 11:28 PM CDT (8/27) 1:38 PM CDT (8/27)
Length of Visible Light 14h 26m
Length of Day
13h 26m
Waning Gibbous, 57% of the Moon is Illuminated
Aug 27
Waning Gibbous
Aug 28
Last Quarter
Sep 5
New
Sep 12
First Quarter
Sep 19
Full

Hourly Weather History & Observations

Time (CDT) Temp. Heat Index Dew Point Humidity Pressure Visibility Wind Dir Wind Speed Gust Speed Precip Events Conditions
12:15 AM 82.4 °F 86.3 °F 69.8 °F 66% 29.91 in 10.0 mi SSW 4.6 mph - N/A   Clear
12:36 AM 80.6 °F 83.9 °F 69.8 °F 70% 29.91 in 10.0 mi SW 4.6 mph - N/A   Clear
12:56 AM 80.6 °F 83.9 °F 69.8 °F 70% 29.90 in 10.0 mi SW 3.5 mph - N/A   Clear
1:15 AM 80.6 °F 83.9 °F 69.8 °F 70% 29.90 in 10.0 mi SW 3.5 mph - N/A   Clear
1:36 AM 80.6 °F 83.9 °F 69.8 °F 70% 29.89 in 10.0 mi Calm Calm - N/A   Clear
1:56 AM 80.6 °F 83.9 °F 69.8 °F 70% 29.89 in 10.0 mi SW 3.5 mph - N/A   Clear
2:15 AM 80.6 °F 83.9 °F 69.8 °F 70% 29.88 in 10.0 mi South 3.5 mph - N/A   Clear
2:36 AM 80.6 °F 83.9 °F 69.8 °F 70% 29.87 in 10.0 mi WSW 3.5 mph - N/A   Clear
2:56 AM 80.6 °F 83.9 °F 69.8 °F 70% 29.87 in 10.0 mi SW 6.9 mph - N/A   Clear
3:15 AM 80.6 °F 83.9 °F 69.8 °F 70% 29.86 in 10.0 mi WSW 3.5 mph - N/A   Clear
3:36 AM 80.6 °F 83.2 °F 68.0 °F 65% 29.86 in 10.0 mi WSW 3.5 mph - N/A   Clear
3:56 AM 80.6 °F 83.2 °F 68.0 °F 65% 29.86 in 10.0 mi SW 3.5 mph - N/A   Clear
4:15 AM 80.6 °F 83.2 °F 68.0 °F 65% 29.86 in 10.0 mi WSW 4.6 mph - N/A   Clear
4:36 AM 78.8 °F - 68.0 °F 69% 29.86 in 10.0 mi Calm Calm - N/A   Clear
4:56 AM 80.6 °F 83.2 °F 68.0 °F 65% 29.86 in 10.0 mi WSW 4.6 mph - N/A   Clear
5:16 AM 80.6 °F 83.2 °F 68.0 °F 65% 29.86 in 10.0 mi SSW 3.5 mph - N/A   Clear
5:36 AM 78.8 °F - 68.0 °F 69% 29.86 in 10.0 mi Calm Calm - N/A   Clear
5:56 AM 78.8 °F - 68.0 °F 69% 29.86 in 10.0 mi Calm Calm - N/A   Clear
6:16 AM 78.8 °F - 68.0 °F 69% 29.86 in 10.0 mi West 3.5 mph - N/A   Clear
6:35 AM 78.8 °F - 68.0 °F 69% 29.86 in 10.0 mi WSW 3.5 mph - N/A   Clear
6:56 AM 78.8 °F - 68.0 °F 69% 29.87 in 10.0 mi Calm Calm - N/A   Clear
7:16 AM 77.0 °F - 68.0 °F 74% 29.87 in 10.0 mi SSW 4.6 mph - N/A   Clear
7:35 AM 78.8 °F - 68.0 °F 69% 29.87 in 10.0 mi Calm Calm - N/A   Clear
7:56 AM 78.8 °F - 68.0 °F 69% 29.86 in 10.0 mi Calm Calm - N/A   Clear
8:16 AM 78.8 °F - 68.0 °F 69% 29.86 in 10.0 mi SW 4.6 mph - N/A   Clear
8:36 AM 80.6 °F 83.2 °F 68.0 °F 65% 29.85 in 10.0 mi SW 5.8 mph - N/A   Clear
8:44 AM 80.6 °F 83.2 °F 68.0 °F 65% 29.85 in 10.0 mi WSW 6.9 mph - N/A   Clear
9:15 AM 82.4 °F 85.4 °F 68.0 °F 62% 29.85 in 10.0 mi West 8.1 mph - N/A   Clear
9:35 AM 82.4 °F 85.4 °F 68.0 °F 62% 29.84 in 10.0 mi West 8.1 mph - N/A   Clear
9:55 AM 84.2 °F 87.3 °F 68.0 °F 58% 29.84 in 10.0 mi WSW 5.8 mph - N/A   Clear
10:15 AM 87.8 °F 92.6 °F 69.8 °F 55% 29.85 in 10.0 mi WSW 10.4 mph - N/A   Clear
10:35 AM 89.6 °F 96.2 °F 71.6 °F 55% 29.84 in 10.0 mi WSW 5.8 mph 16.1 mph N/A   Clear
10:55 AM 89.6 °F 94.7 °F 69.8 °F 52% 29.84 in 10.0 mi WSW 9.2 mph - N/A   Clear
11:15 AM 89.6 °F 94.7 °F 69.8 °F 52% 29.84 in 10.0 mi WSW 8.1 mph - N/A   Clear
11:35 AM 89.6 °F 94.7 °F 69.8 °F 52% 29.84 in 10.0 mi WSW 5.8 mph - N/A   Clear
11:55 AM 89.6 °F 94.7 °F 69.8 °F 52% 29.84 in 10.0 mi West 9.2 mph - N/A   Clear
12:15 PM 89.6 °F 94.7 °F 69.8 °F 52% 29.83 in 10.0 mi WSW 6.9 mph - N/A   Clear
12:35 PM 89.6 °F 94.7 °F 69.8 °F 52% 29.83 in 10.0 mi WSW 5.8 mph - N/A   Clear
12:55 PM 89.6 °F 94.7 °F 69.8 °F 52% 29.83 in 10.0 mi WSW 6.9 mph - N/A   Clear
1:15 PM 91.4 °F 96.8 °F 69.8 °F 49% 29.82 in 10.0 mi WSW 9.2 mph - N/A   Clear
1:35 PM 89.6 °F 94.7 °F 69.8 °F 52% 29.82 in 10.0 mi WNW 8.1 mph - N/A   Clear
1:55 PM 91.4 °F 96.8 °F 69.8 °F 49% 29.82 in 10.0 mi West 4.6 mph - N/A   Clear
2:15 PM 93.2 °F 98.8 °F 69.8 °F 46% 29.82 in 10.0 mi West 6.9 mph - N/A   Clear
2:26 PM 95.0 °F 103.2 °F 71.6 °F 47% 29.81 in 10.0 mi WSW 4.6 mph - N/A   Clear
2:36 PM 95.0 °F 103.2 °F 71.6 °F 47% 29.81 in 10.0 mi SSW 6.9 mph - N/A   Clear
2:56 PM 95.0 °F 103.2 °F 71.6 °F 47% 29.81 in 10.0 mi WSW 6.9 mph - N/A   Clear
3:16 PM 95.0 °F 103.2 °F 71.6 °F 47% 29.81 in 10.0 mi SW 8.1 mph - N/A   Clear
3:35 PM 95.0 °F 103.2 °F 71.6 °F 47% 29.81 in 10.0 mi West 6.9 mph - N/A   Clear
3:56 PM 95.0 °F 103.2 °F 71.6 °F 47% 29.81 in 10.0 mi WSW 9.2 mph - N/A   Clear
4:16 PM 95.0 °F 103.2 °F 71.6 °F 47% 29.81 in 10.0 mi WNW 10.4 mph - N/A   Scattered Clouds
4:35 PM 95.0 °F 101.3 °F 69.8 °F 44% 29.81 in 10.0 mi West 6.9 mph - N/A   Scattered Clouds
4:56 PM 95.0 °F 103.2 °F 71.6 °F 47% 29.82 in 10.0 mi West 6.9 mph - N/A   Scattered Clouds
5:16 PM 95.0 °F 103.2 °F 71.6 °F 47% 29.82 in 10.0 mi West 8.1 mph - N/A   Scattered Clouds
5:35 PM 93.2 °F 100.5 °F 71.6 °F 49% 29.82 in 10.0 mi WNW 5.8 mph - N/A   Scattered Clouds
5:56 PM 91.4 °F 98.4 °F 71.6 °F 52% 29.82 in 10.0 mi West 4.6 mph - N/A   Scattered Clouds
6:16 PM 91.4 °F 98.4 °F 71.6 °F 52% 29.82 in 10.0 mi NW 5.8 mph - N/A   Clear
6:35 PM 89.6 °F 96.2 °F 71.6 °F 55% 29.82 in 10.0 mi WNW 4.6 mph - N/A   Clear
6:56 PM 89.6 °F 96.2 °F 71.6 °F 55% 29.82 in 10.0 mi WNW 3.5 mph - N/A   Clear
7:16 PM 89.6 °F 96.2 °F 71.6 °F 55% 29.82 in 10.0 mi WNW 3.5 mph - N/A   Clear
7:35 PM 89.6 °F 98.2 °F 73.4 °F 59% 29.83 in 10.0 mi Calm Calm - N/A   Clear
7:56 PM 89.6 °F 98.2 °F 73.4 °F 59% 29.83 in 10.0 mi Calm Calm - N/A   Clear
8:16 PM 84.2 °F 90.9 °F 73.4 °F 70% 29.84 in 10.0 mi Calm Calm - N/A   Clear
8:35 PM 80.6 °F 84.6 °F 71.6 °F 74% 29.85 in 10.0 mi Calm Calm - N/A   Clear
8:56 PM 80.6 °F 85.4 °F 73.4 °F 79% 29.85 in 10.0 mi Calm Calm - N/A   Clear
9:16 PM 80.6 °F 85.4 °F 73.4 °F 79% 29.86 in 10.0 mi Calm Calm - N/A   Scattered Clouds
9:35 PM 80.6 °F 85.4 °F 73.4 °F 79% 29.86 in 10.0 mi Calm Calm - N/A   Scattered Clouds
9:56 PM 78.8 °F - 73.4 °F 83% 29.87 in 10.0 mi Calm Calm - N/A   Scattered Clouds
10:16 PM 78.8 °F - 73.4 °F 83% 29.88 in 10.0 mi NW 4.6 mph - N/A   Scattered Clouds
10:35 PM 78.8 °F - 73.4 °F 83% 29.88 in 10.0 mi NW 5.8 mph - N/A   Scattered Clouds
10:56 PM 78.8 °F - 73.4 °F 83% 29.89 in 10.0 mi NNW 3.5 mph - N/A   Scattered Clouds
11:15 PM 80.6 °F 85.4 °F 73.4 °F 79% 29.89 in 10.0 mi Calm Calm - N/A   Scattered Clouds
11:36 PM 80.6 °F 85.4 °F 73.4 °F 79% 29.89 in 10.0 mi Calm Calm - N/A   Scattered Clouds